Regional Weather Roundup
Issued by NWS

Home | Current Version | Previous Version | Text Only | Print | Product List | Glossary On
Versions: 1 2 3 4 5 6 7 8 9 10 11 12 13 14 15 16 17 18 19 20 21 22 23 24 25 26 27 28 29 30 31 32 33 34 35 36 37 38 39 40 41 42 43 44 45 46 47 48 49 50
000
ASUS44 KMEG 012110
RWRTN
TENNESSEE HOURLY STATE WEATHER ROUNDUP
NATIONAL WEATHER SERVICE MEMPHIS TN
400 PM CDT TUE SEP 01 2015

TNZ002-004-019-021-049-052-054-088>092-012200-
WEST TENNESSEE

CITY           SKY/WX    TMP DP  RH WIND       PRES   REMARKS
MEMPHIS INTL   PTSUNNY   91  63  39 SE8       30.05F HX  92
NWS MEMPHIS      N/A     89 N/A N/A MISG        N/A
JACKSON        MOSUNNY   88  67  49 CALM      30.07F HX  91
DYERSBURG      PTSUNNY   88  70  55 E5        30.07F HX  92
UNION CITY     MOSUNNY   90  70  51 VRB3      30.06F HX  95
PARIS          SUNNY     86  66  51 E6        30.09F
LEXINGTON      PTSUNNY   88  66  48 CALM      30.08S HX  90
$$

TNZ008-025-027-028-033-062-065-066-012200-
NORTH MIDDLE TENNESSEE

CITY           SKY/WX    TMP DP  RH WIND       PRES   REMARKS
NASHVILLE      CLOUDY    88  64  44 E3        30.09F
CLARKSVILLE    PTSUNNY   89  64  43 SW7       30.07F HX  90
SMYRNA         PTSUNNY   96  67  38 E7        30.10F HX 100
COOKEVILLE     MOSUNNY   88  70  55 NW3       30.11S HX  92
CROSSVILLE     MOSUNNY   84  66  54 S3        30.16S
$$

TNZ061-075-076-078-094-096-097-012200-
SOUTH MIDDLE TENNESSEE

CITY           SKY/WX    TMP DP  RH WIND       PRES   REMARKS
FAYETTEVILLE     N/A     84  64  51 CALM      30.11F
TULLAHOMA      MOSUNNY   84  64  51 NW3       30.13F
WINCHESTER     PTSUNNY   88  64  45 SE5       30.11F
MCMINNVILLE    SUNNY     88  70  55 VRB3      30.11F HX  92
COLUMBIA       SUNNY     88  70  55 CALM      30.08F HX  92
SHELBYVILLE    MOSUNNY   88  70  55 CALM      30.11F HX  92
$$

TNZ017-018-042-046-047-012200-
NORTHEAST TENNESSEE

CITY           SKY/WX    TMP DP  RH WIND       PRES   REMARKS
TRI CITIES     PTSUNNY   89  63  41 N5        30.11F HX  90
ELIZABETHTON   PTCLDY    88  63  42 S3        30.11F
$$

TNZ012-013-036-069-073-074-012200-
CENTRAL EAST TENNESSEE

CITY           SKY/WX    TMP DP  RH WIND       PRES   REMARKS
KNOXVILLE      PTSUNNY   89  62  40 CALM      30.08F
OAK RIDGE      MOSUNNY   88  65  46 SE5       30.11F HX  90
GATLINBURG       N/A     90  61  37 NE8       30.08F
MORRISTOWN     CLEAR     88  64  45 CALM      30.11F
$$

TNZ083-085-099-012200-
SOUTHEAST TENNESSEE

CITY           SKY/WX    TMP DP  RH WIND       PRES   REMARKS
CHATTANOOGA    MOSUNNY   88  65  46 NW7       30.09S HX  90
$$

SKY/WX REPORTED AS FAIR MEANS FEW OR NO CLOUDS BELOW
12 THOUSAND FEET.



USA.gov is the U.S. government's official web portal to all federal, state and local government web resources and services.